Regional Weather Roundup
Issued by NWS

Home | Current Version | Previous Version | Graphics & Text | Print | Product List | Glossary On
Versions: 1 2 3 4 5 6 7 8 9 10 11 12 13 14 15 16 17 18 19 20 21 22 23 24 25 26 27 28 29 30 31 32 33 34 35 36 37 38 39 40 41 42 43 44 45 46 47 48 49 50
000
ASUS43 KIND 270209
RWRIN

WEATHER ROUNDUP FOR INDIANA
NATIONAL WEATHER SERVICE INDIANAPOLIS IN
1000 PM EDT WED APR 26 2017

NOTE: "FAIR" INDICATES FEW OR NO CLOUDS BELOW 12,000 FEET WITH NO
SIGNIFICANT WEATHER AND/OR OBSTRUCTIONS TO VISIBILITY.

* - STATION DOES NOT REPORT WEATHER SUCH AS PRECIPITATION OR FOG.

+ - STATION NOT QUALITY CONTROLLED BY THE NATIONAL WEATHER SERVICE.
    USE DATA WITH CAUTION...ESPECIALLY DEWPOINT AND RELATIVE
    HUMIDITY OBSERVATIONS.

INZ001>003-010>013-019-020-270300-
NORTHWEST INDIANA

CITY           SKY/WX    TMP DP  RH WIND       PRES   REMARKS
GARY /AIRPORT/ CLOUDY    72  54  53 SW5       29.46S
KNOX *+        MOCLDY    63  45  51 CALM      29.45R
LA PORTE +     CLOUDY    66  56  69 CALM      29.47R
MICHIGAN CITY+ CLOUDY    68  52  56 CALM      29.46R
MONTICELLO +   CLOUDY    65  59  81 SE5       29.47S
RENSSELAER +   HVY RAIN  64  61  88 W10       29.50R
VALPARAISO     CLOUDY    70  56  61 SW7       29.47R

$$

LMZ046-743>745-270300-
SOUTHERN LAKE MICHIGAN

STATION/POSITION TIME  TEMP    WIND        PRES    WAVE
                       AIR SEA DIR/SP/G            HT
                 (UTC) (F)     (DEG/KT/KT) (MB)    (FT)
BURNS HARBOR     0140   63     240/  7/ 10  998.3R
MICHIGAN CITY    0140   70     230/ 10/ 10   N/A
5NW MICH CITY    0200   56 49                N/A     1

$$

INZ004-005-014>016-021>024-270300-
NORTH CENTRAL INDIANA

CITY           SKY/WX    TMP DP  RH WIND       PRES   REMARKS
GOSHEN         CLOUDY    65  58  78 W5        29.46F
LOGANSPORT +   CLOUDY    63  61  94 SE8       29.50R
PERU/GRISSOM   MOCLDY    64  64 100 SE8       29.48R
ROCHESTER +    CLOUDY    66  61  82 S7        29.50R
SOUTH BEND     CLOUDY    69  55  60 CALM      29.46F
WARSAW +       CLOUDY    64  59  82 SE5       29.48R

$$

INZ006>009-017-018-025>027-270300-
NORTHEAST INDIANA

CITY           SKY/WX    TMP DP  RH WIND       PRES   REMARKS
ANGOLA *+      CLOUDY    70  61  73 CALM      29.54R
AUBURN +       LGT RAIN  63  59  88 SE10G16   29.54F
FORT WAYNE     CLOUDY    62  58  86 NE7       29.52F
HUNTINGTON +   CLOUDY    62  60  96 E3        29.51F
KENDALLVILLE + LGT RAIN  66  60  80 E12       29.49F

$$

INZ028-029-035-036-043>045-051>053-270300-
WEST CENTRAL INDIANA

CITY           SKY/WX    TMP DP  RH WIND       PRES   REMARKS
CRAWFORDSVL +  PTCLDY    60  60 100 SE8       29.49R
GREENCASTLE +  CLOUDY    57  57 100 SE3       29.49R
LAFAYETTE      MOCLDY    62  60  93 CALM      29.46F
TERRE HAUTE    MOCLDY    64  61  90 CALM      29.49R

$$

INZ030>032-037>040-046>048-054>057-064-065-270300-
CENTRAL INDIANA

CITY           SKY/WX    TMP DP  RH WIND       PRES   REMARKS
CP ATTERBURY + PTCLDY    72  54  53 S9        29.52S
COLUMBUS       CLEAR     73  48  40 SE8       29.52S
FISHERS *+     PTCLDY    61  61 100 E6        29.51F
FRANKFORT +    PTCLDY    65  63  93 SE8       29.50F
GREENWOOD *+   CLEAR     66  58  74 CALM      29.52S
INDIANAPOLIS   MOCLDY    65  58  78 E7        29.50S
-EAGLE CREEK   PTCLDY    64  59  83 E6        29.50S
KOKOMO +       MOCLDY    63  61  93 E8        29.50F
MARION +       CLOUDY    63  61  94 E7        29.52F
MT COMFORT *+  PTCLDY    63  55  77 NE6       29.52F
SHELBYVILLE    PTCLDY    74  53  48 SE10      29.52S
ZIONSVILLE +   CLEAR     59  59  99 E3        29.51F

$$

INZ033-034-041-042-049-050-058-059-270300-
EAST CENTRAL INDIANA

CITY           SKY/WX    TMP DP  RH WIND       PRES   REMARKS
MUNCIE         PTCLDY    69  58  67 CALM      29.53S
RICHMOND +     CLOUDY    68  50  52 S10       29.59S

$$

INZ060-061-067>069-081>083-085>088-270300-
SOUTHWEST INDIANA

CITY           SKY/WX    TMP DP  RH WIND       PRES   REMARKS
EVANSVILLE     CLOUDY    67  58  72 W10G16    29.54R
HUNTINGBURG *+ CLEAR     74  55  51 S13       29.50S
WASHINGTON +   CLEAR     64  56  74 CALM      29.49R

$$

INZ062-063-066-070>080-084-089>092-270300-
SOUTH CENTRAL AND SOUTHEAST INDIANA

CITY           SKY/WX    TMP DP  RH WIND       PRES   REMARKS
BEDFORD +      MOCLDY    73  54  49 SE9       29.51S
BLOOMINGTON    CLOUDY    73  55  53 SE9       29.49F
MADISON *+     CLOUDY    72  50  46 SE5       29.58S
NORTH VERNON + CLOUDY    72  52  49 SE5       29.55S
SEYMOUR +      CLOUDY    75  54  46 S9        29.52F

$$




USA.gov is the U.S. government's official web portal to all federal, state and local government web resources and services.